EW7431 Weather Reports


Display with metric or nautical units.
time (UTC)temp
F
wind
direction
speed
MPH
gust
MPH
rain 1hr
in
rain 24hr
in
rain mn
in
humidity
%
barometer
mb
20260506191526 60 319 0.0 3.0 0.01 0.24 0.24 92 1008.1
20260506190025 60 310 0.0 2.0 0.03 0.24 0.24 93 1008.1
20260506184522 59 254 0.0 4.0 0.03 0.24 0.24 92 1008.3
20260506183018 59 270 0.0 4.0 0.04 0.24 0.24 92 1008.5
20260506181522 59 155 0.0 4.0 0.04 0.23 0.23 92 1008.5
20260506180017 59 183 1.0 4.0 0.04 0.21 0.21 92 1008.5
20260506174526 59 118 0.0 3.0 0.04 0.21 0.21 92 1008.5
20260506173006 59 90 0.0 3.0 0.03 0.20 0.20 92 1008.5
20260506171510 59 37 1.0 5.0 0.02 0.19 0.19 92 1008.3
20260506170004 59 304 1.0 3.0 0.01 0.17 0.17 91 1008.8
20260506164524 59 270 0.0 4.0 0.03 0.17 0.17 91 1008.8
20260506163038 59 107 2.0 4.0 0.05 0.17 0.17 92 1008.8
20260506161520 59 126 1.0 5.0 0.08 0.17 0.17 92 1008.3
20260506160020 59 113 1.0 3.0 0.08 0.16 0.16 91 1008.8
20260506154512 59 113 0.0 4.0 0.07 0.14 0.14 91 1009.5
20260506153010 59 301 0.0 7.0 0.07 0.12 0.12 90 1009.7
20260506151508 60 166 1.0 4.0 0.06 0.09 0.09 90 1010.0
20260506150027 60 155 1.0 3.0 0.06 0.08 0.08 90 1010.0
20260506144525 60 125 0.0 2.0 0.06 0.07 0.07 90 1009.9
20260506143021 60 149 0.0 0.0 0.04 0.05 0.05 89 1009.7
20260506141518 61 136 0.0 3.0 0.02 0.03 0.03 87 1009.9
20260506140026 61 110 0.0 2.0 0.01 0.02 0.02 86 1009.9
20260506134528 62 123 0.0 2.0 0.01 0.01 0.01 86 1009.6
20260506133025 61 118 0.0 3.0 0.01 0.01 0.01 85 1010.0
20260506131524 62 40 0.0 3.0 0.01 0.01 0.01 84 1009.9
20260506130023 62 165 0.0 2.0 0.01 0.01 0.01 83 1010.0
20260506124524 63 178 0.0 4.0 0.00 0.00 0.00 81 1010.0
20260506123024 64 120 1.0 7.0 0.00 0.00 0.00 77 1010.0
20260506121533 64 271 0.0 3.0 0.00 0.00 0.00 76 1009.7
20260506120027 64 106 0.0 5.0 0.00 0.00 0.00 77 1009.7
20260506114533 64 107 0.0 3.0 0.00 0.00 0.00 76 1009.7
20260506113007 64 119 1.0 4.0 0.00 0.00 0.00 75 1009.5
20260506111506 64 82 1.0 6.0 0.00 0.00 0.00 75 1009.6
20260506110008 64 274 1.0 6.0 0.00 0.00 0.00 75 1009.6
20260506104507 64 9 0.0 9.0 0.00 0.00 0.00 75 1009.3
20260506103003 64 57 0.0 3.0 0.00 0.00 0.00 75 1009.2
20260506101508 64 110 1.0 6.0 0.00 0.00 0.00 75 1009.1
20260506100008 64 40 0.0 7.0 0.00 0.00 0.00 74 1009.1
20260506094506 64 21 0.0 3.0 0.00 0.00 0.00 74 1009.1
20260506093016 64 136 1.0 4.0 0.00 0.00 0.00 74 1009.0
20260506091511 64 69 0.0 2.0 0.00 0.00 0.00 73 1009.2
20260506090010 64 136 0.0 2.0 0.00 0.00 0.00 72 1009.1
20260506084508 64 162 0.0 3.0 0.00 0.01 0.00 72 1009.3
20260506083012 64 118 0.0 2.0 0.00 0.01 0.00 71 1009.2
20260506081508 64 167 0.0 2.0 0.00 0.01 0.00 70 1009.4
20260506073016 65 166 0.0 3.0 0.00 0.01 0.00 68 1009.5
20260506071513 65 92 0.0 3.0 0.00 0.01 0.00 68 1009.6
20260506061533 65 169 0.0 1.0 0.00 0.01 0.00 66 1010.1
20260506044508 66 271 0.0 2.0 0.00 0.01 0.00 62 1010.8
20260506043008 66 271 0.0 2.0 0.00 0.01 0.00 61 1010.9
20260506041504 67 271 0.0 2.0 0.00 0.01 0.00 60 1011.0
20260506040014 67 258 0.0 3.0 0.00 0.01 0.00 60 1010.8
20260506034518 67 171 0.0 4.0 0.00 0.01 0.01 59 1010.7
20260506033014 68 99 0.0 2.0 0.00 0.01 0.01 58 1010.6
20260506031526 68 142 0.0 2.0 0.00 0.01 0.01 57 1010.5
20260506030008 69 100 0.0 2.0 0.00 0.01 0.01 56 1010.6
20260506024513 69 111 0.0 2.0 0.00 0.01 0.01 55 1010.6
20260506023011 70 134 0.0 4.0 0.00 0.01 0.01 54 1010.8
20260506021504 71 100 1.0 3.0 0.00 0.01 0.01 53 1010.8
20260506020018 71 121 0.0 2.0 0.00 0.01 0.01 51 1010.8
20260506014514 71 198 0.0 4.0 0.00 0.01 0.01 50 1010.6
20260506013009 72 118 0.0 3.0 0.00 0.01 0.01 48 1010.4
20260506011508 72 88 0.0 2.0 0.00 0.01 0.01 47 1010.4
20260506010018 73 146 1.0 2.0 0.00 0.01 0.01 47 1010.2
20260506004521 73 274 0.0 3.0 0.00 0.01 0.01 47 1010.0
20260506003014 73 5 0.0 3.0 0.00 0.01 0.01 46 1009.9
20260506001516 73 218 0.0 4.0 0.00 0.01 0.01 46 1009.6
20260506000013 74 159 1.0 8.0 0.00 0.01 0.01 46 1009.4
20260505234512 74 126 0.0 4.0 0.00 0.01 0.01 46 1009.4
20260505233021 75 344 0.0 3.0 0.00 0.01 0.01 45 1009.3
20260505231528 75 345 0.0 3.0 0.00 0.01 0.01 45 1009.2
20260505230026 76 350 0.0 3.0 0.00 0.01 0.01 44 1009.2
20260505224514 76 89 1.0 6.0 0.00 0.01 0.01 43 1009.1
20260505223015 77 67 0.0 7.0 0.00 0.01 0.01 43 1009.1
20260505221514 77 355 1.0 10.0 0.00 0.01 0.01 41 1009.1
20260505220030 78 124 3.0 8.0 0.00 0.01 0.01 40 1009.0
20260505214530 78 242 2.0 8.0 0.00 0.01 0.01 39 1009.0
20260505213023 79 184 2.0 6.0 0.00 0.01 0.01 41 1009.0
20260505211520 79 118 2.0 7.0 0.00 0.01 0.01 40 1008.9
20260505210025 79 31 1.0 8.0 0.00 0.01 0.01 42 1008.8
20260505204518 79 279 2.0 6.0 0.00 0.01 0.01 40 1008.8
20260505203030 80 318 2.0 9.0 0.00 0.01 0.01 39 1009.0
20260505201528 80 170 2.0 8.0 0.00 0.01 0.01 39 1008.8
20260505200005 80 311 2.0 12.0 0.00 0.01 0.01 37 1009.1
20260505194506 80 240 2.0 6.0 0.00 0.01 0.01 38 1009.1
20260505193005 81 275 2.0 8.0 0.00 0.01 0.01 37 1009.0